FW1417 Weather Reports


Display with metric or nautical units.
time (UTC)temp
F
wind
direction
speed
MPH
gust
MPH
rain 1hr
in
rain 24hr
in
rain mn
in
humidity
%
barometer
mb
20181021163206 46 272 9.0 18.0 0.00 0.00 0.00 51 1014.4
20181021162705 46 17 4.0 18.0 0.00 0.00 0.00 51 1014.4
20181021162205 46 11 7.0 18.0 0.00 0.00 0.00 51 1014.4
20181021161705 46 308 7.0 18.0 0.00 0.00 0.00 51 1014.4
20181021161206 46 302 9.0 16.0 0.00 0.00 0.00 50 1014.4
20181021160706 46 359 6.0 20.0 0.00 0.00 0.00 51 1014.5
20181021160206 46 53 5.0 20.0 0.00 0.00 0.00 51 1014.4
20181021155705 46 277 7.0 20.0 0.00 0.00 0.00 51 1014.4
20181021155205 46 15 8.0 18.0 0.00 0.00 0.00 50 1014.5
20181021154706 46 343 5.0 23.0 0.00 0.00 0.00 50 1014.5
20181021154206 46 19 7.0 23.0 0.00 0.00 0.00 50 1014.4
20181021153706 46 26 9.0 18.0 0.00 0.00 0.00 50 1014.4
20181021153205 46 296 6.0 20.0 0.00 0.00 0.00 50 1014.4
20181021152706 46 18 8.0 20.0 0.00 0.00 0.00 49 1014.4
20181021152205 46 321 11.0 18.0 0.00 0.00 0.00 49 1014.3
20181021151705 46 308 9.0 21.0 0.00 0.00 0.00 49 1014.2
20181021151205 46 65 12.0 21.0 0.00 0.00 0.00 49 1014.1
20181021150706 46 11 9.0 25.0 0.00 0.00 0.00 50 1014.0
20181021150205 46 14 9.0 25.0 0.00 0.00 0.00 50 1014.0
20181021145705 46 5 11.0 23.0 0.00 0.00 0.00 50 1014.0
20181021145205 47 40 10.0 23.0 0.00 0.00 0.00 49 1014.0
20181021144705 47 348 7.0 21.0 0.00 0.00 0.00 49 1014.1
20181021144207 46 286 8.0 23.0 0.00 0.00 0.00 50 1014.2
20181021143706 46 27 9.0 23.0 0.00 0.00 0.00 51 1014.1
20181021143206 46 313 10.0 21.0 0.00 0.00 0.00 51 1014.0
20181021142706 46 10 11.0 20.0 0.00 0.00 0.00 51 1014.1
20181021142205 46 59 7.0 20.0 0.00 0.00 0.00 51 1014.1
20181021141705 46 32 8.0 20.0 0.00 0.00 0.00 51 1014.0
20181021141206 46 34 7.0 20.0 0.00 0.00 0.00 51 1013.9
20181021140705 46 355 9.0 20.0 0.00 0.00 0.00 52 1013.7
20181021140205 46 13 6.0 12.0 0.00 0.00 0.00 54 1013.4
20181021135706 46 342 5.0 13.0 0.00 0.00 0.00 54 1013.3
20181021135205 46 0 6.0 20.0 0.00 0.00 0.00 54 1013.3
20181021134705 46 340 9.0 20.0 0.00 0.00 0.00 53 1013.2
20181021134206 47 28 6.0 20.0 0.00 0.00 0.00 53 1012.9
20181021133705 47 327 7.0 20.0 0.00 0.00 0.00 52 1012.9
20181021133205 47 344 4.0 20.0 0.00 0.00 0.00 53 1012.8
20181021132706 47 252 6.0 18.0 0.00 0.00 0.00 53 1012.8
20181021132205 46 322 9.0 20.0 0.00 0.00 0.00 53 1012.8
20181021131706 46 344 5.0 21.0 0.00 0.00 0.00 54 1012.7
20181021131205 46 323 10.0 21.0 0.00 0.00 0.00 53 1012.7
20181021130705 46 32 12.0 21.0 0.00 0.00 0.00 52 1012.5
20181021130205 46 129 9.0 20.0 0.00 0.00 0.00 52 1012.3
20181021125706 46 314 9.0 20.0 0.00 0.00 0.00 52 1012.3
20181021125205 46 9 7.0 20.0 0.00 0.00 0.00 52 1012.1
20181021124705 46 315 9.0 26.0 0.00 0.00 0.00 53 1012.0
20181021124206 46 263 8.0 26.0 0.00 0.00 0.00 54 1011.8
20181021123705 46 325 8.0 21.0 0.00 0.00 0.00 54 1011.8
20181021123206 46 355 9.0 21.0 0.00 0.00 0.00 53 1011.6
20181021122705 46 355 7.0 18.0 0.00 0.00 0.00 54 1011.4
20181021122205 46 12 10.0 20.0 0.00 0.00 0.00 54 1011.2
20181021121706 46 4 8.0 20.0 0.00 0.00 0.00 54 1010.9
20181021121205 47 20 8.0 20.0 0.00 0.00 0.00 54 1010.8
20181021120706 47 10 9.0 20.0 0.00 0.00 0.00 54 1010.7
20181021120206 47 298 10.0 26.0 0.00 0.00 0.00 56 1010.5
20181021115706 48 297 7.0 26.0 0.00 0.00 0.00 58 1010.2
20181021115206 48 86 6.0 18.0 0.00 0.00 0.00 63 1010.1
20181021114706 48 13 8.0 18.0 0.00 0.00 0.00 65 1009.7
20181021114207 48 5 5.0 18.0 0.00 0.00 0.00 65 1009.6
20181021113705 48 19 6.0 18.0 0.00 0.00 0.00 65 1009.4
20181021113207 48 96 9.0 18.0 0.00 0.00 0.00 66 1009.2
20181021112705 49 20 7.0 18.0 0.00 0.00 0.00 66 1009.1
20181021112205 49 11 7.0 15.0 0.00 0.00 0.00 68 1008.8
20181021111706 49 22 6.0 15.0 0.00 0.00 0.00 69 1008.6
20181021111206 49 16 4.0 14.0 0.00 0.00 0.00 69 1008.4
20181021110705 49 355 5.0 12.0 0.00 0.00 0.00 70 1008.2
20181021110205 49 339 3.0 18.0 0.00 0.00 0.00 70 1008.1
20181021105705 49 42 7.0 18.0 0.00 0.00 0.00 70 1008.0
20181021105205 49 28 7.0 12.0 0.00 0.00 0.00 71 1007.8
20181021104706 49 35 6.0 12.0 0.00 0.00 0.00 70 1007.6
20181021104206 49 3 2.0 12.0 0.00 0.00 0.00 70 1007.5
20181021103705 49 339 5.0 13.0 0.00 0.00 0.00 70 1007.3
20181021103206 49 331 5.0 13.0 0.00 0.00 0.00 69 1007.1
20181021102705 49 38 6.0 12.0 0.00 0.00 0.00 69 1007.1
20181021102206 49 17 3.0 9.0 0.00 0.00 0.00 70 1006.9
20181021101705 49 350 3.0 9.0 0.00 0.00 0.00 70 1006.7
20181021101206 49 44 1.0 13.0 0.00 0.00 0.00 70 1006.6
20181021100706 49 22 3.0 13.0 0.00 0.00 0.00 70 1006.6
20181021100205 49 37 5.0 10.0 0.00 0.00 0.00 70 1006.4
20181021095705 49 32 3.0 10.0 0.00 0.00 0.00 71 1006.1
20181021095207 49 24 5.0 12.0 0.00 0.00 0.00 71 1006.1
20181021094706 49 338 6.0 14.0 0.00 0.00 0.00 71 1006.0
20181021094206 49 9 5.0 14.0 0.00 0.00 0.00 71 1005.8
20181021093705 49 30 5.0 12.0 0.00 0.00 0.00 72 1005.6
20181021093205 49 0 7.0 13.0 0.00 0.01 0.00 72 1005.5
20181021092706 49 355 3.0 13.0 0.00 0.01 0.00 73 1005.4
20181021092205 49 355 6.0 15.0 0.00 0.01 0.00 73 1005.2
20181021091707 49 0 6.0 15.0 0.00 0.01 0.00 73 1005.1
20181021091206 49 67 4.0 13.0 0.00 0.01 0.00 75 1005.0
20181021090705 49 22 3.0 13.0 0.00 0.01 0.00 75 1004.9
20181021090206 49 15 3.0 9.0 0.00 0.02 0.00 77 1004.8
20181021085705 49 15 2.0 6.0 0.00 0.02 0.00 78 1004.6
20181021085206 49 304 2.0 10.0 0.00 0.02 0.00 78 1004.6
20181021084705 49 293 4.0 10.0 0.00 0.03 0.00 78 1004.5
20181021084206 49 40 2.0 9.0 0.00 0.03 0.00 78 1004.4
20181021083705 49 0 3.0 10.0 0.00 0.03 0.00 78 1004.1
20181021083205 49 5 4.0 12.0 0.00 0.03 0.00 78 1004.1
20181021082705 49 55 3.0 14.0 0.00 0.03 0.00 78 1004.1
20181021082206 49 338 5.0 14.0 0.00 0.03 0.00 78 1004.2
20181021081705 49 0 5.0 12.0 0.00 0.03 0.00 79 1004.1
20181021081206 49 355 2.0 10.0 0.00 0.03 0.00 80 1004.0
20181021080706 49 22 3.0 12.0 0.00 0.03 0.00 80 1003.6
20181021080206 49 0 5.0 12.0 0.00 0.03 0.00 82 1003.5
20181021075707 49 5 3.0 12.0 0.00 0.03 0.00 82 1003.5
20181021075205 50 355 5.0 9.0 0.00 0.03 0.00 82 1003.3
20181021074706 50 10 3.0 12.0 0.00 0.04 0.00 83 1003.2
20181021074206 50 36 3.0 12.0 0.00 0.04 0.00 83 1003.2
20181021073705 50 340 2.0 6.0 0.00 0.04 0.00 83 1003.0
20181021073206 50 348 2.0 3.0 0.00 0.04 0.00 83 1002.9
20181021072705 50 230 1.0 5.0 0.00 0.04 0.00 83 1002.9
20181021072207 50 278 1.0 6.0 0.00 0.04 0.00 83 1002.9
20181021071706 50 269 0.0 6.0 0.00 0.04 0.00 83 1002.8
20181021071205 50 312 1.0 6.0 0.00 0.05 0.00 83 1002.9
20181021070706 50 37 2.0 5.0 0.00 0.06 0.00 83 1002.9
20181021070206 50 271 1.0 12.0 0.00 0.06 0.00 83 1002.9
20181021065706 50 298 3.0 12.0 0.00 0.06 0.00 82 1002.8
20181021065206 50 275 0.0 7.0 0.00 0.06 0.00 82 1002.7
20181021064705 50 256 3.0 10.0 0.00 0.06 0.00 82 1002.9
20181021064205 50 262 2.0 10.0 0.00 0.06 0.00 82 1003.0
20181021063706 50 221 1.0 5.0 0.00 0.06 0.00 82 1002.9
20181021063205 50 267 2.0 5.0 0.00 0.06 0.00 82 1002.6
20181021062706 50 267 2.0 5.0 0.00 0.06 0.00 82 1002.5
20181021062206 50 10 0.0 5.0 0.00 0.06 0.00 81 1002.0
20181021061705 50 9 0.0 5.0 0.00 0.06 0.00 81 1002.0
20181021061206 50 9 1.0 5.0 0.00 0.06 0.00 81 1001.9
20181021060705 50 17 1.0 3.0 0.00 0.06 0.00 81 1001.9
20181021060206 50 17 1.0 6.0 0.00 0.06 0.00 81 1001.9
20181021055706 50 14 0.0 6.0 0.00 0.06 0.00 81 1002.3
20181021055206 50 51 2.0 7.0 0.00 0.06 0.00 81 1002.0
20181021054706 50 11 3.0 7.0 0.00 0.06 0.00 80 1002.1
20181021054206 50 12 1.0 6.0 0.00 0.06 0.00 80 1002.4
20181021053706 50 355 1.0 6.0 0.00 0.06 0.00 80 1002.4
20181021053205 50 20 2.0 6.0 0.00 0.06 0.00 79 1002.2
20181021052705 51 339 3.0 6.0 0.00 0.06 0.00 79 1002.0
20181021052206 51 321 1.0 3.0 0.00 0.06 0.00 78 1002.4
20181021051706 51 333 2.0 6.0 0.00 0.06 0.00 78 1002.5
20181021051206 51 45 1.0 9.0 0.00 0.06 0.00 77 1002.5
20181021050706 52 257 3.0 9.0 0.00 0.06 0.00 76 1002.7
20181021050206 52 221 2.0 9.0 0.00 0.06 0.00 75 1002.9
20181021045700 52 261 3.0 7.0 0.00 0.06 0.00 74 1003.0
20181021045201 52 191 2.0 9.0 0.00 0.06 0.00 73 1003.1
20181021044700 52 292 3.0 9.0 0.00 0.06 0.00 72 1003.4
20181021044201 52 313 3.0 9.0 0.00 0.06 0.00 72 1003.4
20181021043701 53 255 3.0 9.0 0.00 0.06 0.00 71 1003.5
20181021043200 53 267 3.0 7.0 0.00 0.06 0.00 70 1003.5
20181021042700 53 263 2.0 6.0 0.00 0.06 0.00 70 1003.5
20181021042200 53 315 2.0 7.0 0.00 0.06 0.00 70 1003.4
20181021041701 53 285 3.0 7.0 0.00 0.06 0.00 70 1003.4
20181021041200 53 291 2.0 8.0 0.00 0.06 0.00 70 1003.4
20181021040701 53 252 2.0 9.0 0.00 0.06 0.00 69 1003.4
20181021040200 53 268 3.0 9.0 0.00 0.06 0.00 69 1003.4
20181021035700 53 318 3.0 6.0 0.00 0.06 0.06 69 1003.4
20181021035200 53 285 1.0 3.0 0.00 0.06 0.06 69 1003.1
20181021034700 53 355 1.0 3.0 0.00 0.06 0.06 69 1003.2
20181021034201 53 355 0.0 5.0 0.00 0.06 0.06 68 1003.4
20181021033700 53 0 1.0 5.0 0.00 0.06 0.06 68 1003.2
20181021033200 53 334 1.0 6.0 0.00 0.06 0.06 68 1003.2
20181021032700 53 347 1.0 6.0 0.00 0.06 0.06 68 1003.4
20181021032200 53 344 1.0 5.0 0.00 0.06 0.06 68 1003.5
20181021031701 53 297 0.0 3.0 0.00 0.06 0.06 68 1003.4
20181021031201 54 292 0.0 3.0 0.00 0.06 0.06 68 1003.4
20181021030700 54 38 0.0 2.0 0.00 0.06 0.06 68 1003.4
20181021030200 54 38 0.0 1.0 0.00 0.06 0.06 67 1003.1
20181021025701 54 38 0.0 0.0 0.00 0.06 0.06 67 1003.1
20181021025200 54 38 0.0 3.0 0.00 0.06 0.06 66 1003.1
20181021024700 54 38 1.0 3.0 0.00 0.06 0.06 66 1003.3
20181021024200 54 38 0.0 3.0 0.00 0.06 0.06 65 1003.4
20181021023701 55 316 0.0 3.0 0.00 0.06 0.06 65 1003.3
20181021023200 55 307 1.0 3.0 0.00 0.06 0.06 64 1003.4
20181021022700 55 293 1.0 5.0 0.00 0.06 0.06 64 1003.4
20181021022200 55 355 2.0 5.0 0.00 0.06 0.06 63 1003.4
20181021021700 55 334 1.0 6.0 0.00 0.06 0.06 63 1003.4
20181021021201 55 22 3.0 6.0 0.00 0.06 0.06 62 1002.9
20181021020700 55 58 2.0 3.0 0.00 0.06 0.06 63 1002.9
20181021020201 55 43 2.0 5.0 0.00 0.06 0.06 63 1002.9
20181021015701 55 59 2.0 7.0 0.00 0.06 0.06 63 1002.6
20181021015201 56 5 2.0 7.0 0.00 0.06 0.06 63 1002.7
20181021014700 56 12 2.0 7.0 0.00 0.06 0.06 63 1002.7
20181021014200 56 61 3.0 6.0 0.00 0.06 0.06 63 1002.9
20181021013701 56 41 3.0 6.0 0.00 0.06 0.06 63 1002.9
20181021013201 56 5 2.0 9.0 0.00 0.06 0.06 63 1003.0
20181021012701 57 332 3.0 9.0 0.00 0.06 0.06 63 1002.9
20181021012200 57 329 3.0 7.0 0.00 0.06 0.06 63 1002.9
20181021011700 57 342 2.0 5.0 0.00 0.06 0.06 63 1002.9
20181021011200 57 326 1.0 5.0 0.00 0.06 0.06 63 1003.0
20181021010701 58 313 1.0 3.0 0.00 0.06 0.06 63 1003.0
20181021010201 58 26 2.0 3.0 0.00 0.06 0.06 65 1003.0
20181021005701 58 290 0.0 3.0 0.00 0.06 0.06 64 1002.9
20181021005200 58 209 1.0 3.0 0.00 0.06 0.06 64 1002.6
20181021004700 58 209 0.0 3.0 0.00 0.06 0.06 63 1002.7
20181021004201 58 209 0.0 3.0 0.00 0.06 0.06 63 1002.5
20181021003701 58 209 0.0 3.0 0.00 0.06 0.06 62 1002.5
20181021003200 58 209 1.0 6.0 0.00 0.06 0.06 62 1002.5
20181021002701 59 209 1.0 6.0 0.00 0.06 0.06 62 1002.5
20181021002200 59 206 0.0 3.0 0.00 0.06 0.06 62 1002.5
20181021001701 59 206 1.0 3.0 0.00 0.06 0.06 62 1002.5
20181021001200 59 220 0.0 3.0 0.00 0.06 0.06 61 1002.5
20181021000700 59 238 1.0 3.0 0.00 0.06 0.06 61 1002.5
20181021000200 59 223 1.0 2.0 0.00 0.06 0.06 60 1002.5
20181020235700 59 223 0.0 6.0 0.00 0.06 0.06 60 1002.5
20181020235200 59 223 1.0 6.0 0.00 0.06 0.06 59 1002.5
20181020234700 59 223 1.0 6.0 0.00 0.06 0.06 59 1002.5
20181020234201 59 220 1.0 3.0 0.00 0.06 0.06 58 1002.5
20181020233701 59 212 1.0 5.0 0.00 0.06 0.06 58 1002.5
20181020233200 59 232 2.0 5.0 0.00 0.06 0.06 58 1002.4
20181020232700 59 211 1.0 5.0 0.00 0.06 0.06 59 1002.4
20181020232201 60 210 1.0 5.0 0.00 0.06 0.06 59 1002.4
20181020231701 60 205 1.0 5.0 0.00 0.06 0.06 58 1002.2
20181020231201 60 225 2.0 5.0 0.00 0.06 0.06 58 1002.3
20181020230701 60 220 1.0 5.0 0.00 0.06 0.06 58 1002.4
20181020230200 60 220 2.0 5.0 0.00 0.06 0.06 58 1002.4
20181020225701 60 232 2.0 6.0 0.00 0.06 0.06 58 1002.4
20181020225200 60 205 2.0 6.0 0.00 0.06 0.06 58 1002.4
20181020224701 60 238 1.0 5.0 0.00 0.06 0.06 58 1002.4
20181020224202 60 223 2.0 5.0 0.00 0.06 0.06 58 1002.4
20181020223701 60 211 1.0 7.0 0.00 0.06 0.06 59 1002.4
20181020223201 61 198 2.0 7.0 0.00 0.06 0.06 58 1002.4
20181020222701 61 223 1.0 3.0 0.00 0.06 0.06 58 1002.4
20181020222201 61 238 1.0 3.0 0.00 0.06 0.06 58 1002.4
20181020221701 61 194 2.0 7.0 0.00 0.06 0.06 57 1002.4
20181020221201 61 223 2.0 7.0 0.00 0.06 0.06 57 1002.5
20181020220701 61 215 1.0 7.0 0.00 0.06 0.06 57 1002.5
20181020220201 61 184 2.0 5.0 0.00 0.06 0.06 57 1002.5
20181020215700 62 216 1.0 7.0 0.00 0.06 0.06 56 1002.5
20181020215200 62 247 2.0 7.0 0.00 0.06 0.06 56 1002.5
20181020214700 62 179 2.0 7.0 0.00 0.06 0.06 55 1002.5
20181020214201 62 282 2.0 6.0 0.00 0.06 0.06 55 1002.5
20181020213701 62 259 3.0 7.0 0.00 0.06 0.06 54 1002.5
20181020213201 62 202 3.0 7.0 0.00 0.06 0.06 54 1002.5
20181020212701 63 233 2.0 5.0 0.00 0.06 0.06 55 1002.4
20181020212200 63 188 2.0 9.0 0.00 0.06 0.06 55 1002.5
20181020211701 63 237 3.0 9.0 0.00 0.06 0.06 55 1002.4
20181020211201 63 261 3.0 9.0 0.00 0.06 0.06 54 1002.4
20181020210701 64 195 3.0 6.0 0.00 0.06 0.06 54 1002.4
20181020210200 64 244 2.0 10.0 0.00 0.06 0.06 55 1002.4
20181020205700 64 242 1.0 10.0 0.00 0.06 0.06 55 1002.4
20181020205200 64 220 2.0 12.0 0.00 0.06 0.06 55 1002.4
20181020204700 64 284 4.0 12.0 0.00 0.06 0.06 54 1002.5
20181020204200 64 250 4.0 10.0 0.00 0.06 0.06 54 1002.5
20181020203700 64 234 3.0 13.0 0.00 0.06 0.06 54 1002.5
20181020203200 64 236 5.0 13.0 0.00 0.06 0.06 54 1002.5
20181020202701 64 187 5.0 10.0 0.00 0.06 0.06 53 1002.7
20181020202201 64 282 3.0 12.0 0.00 0.06 0.06 53 1002.7
20181020201701 64 221 4.0 12.0 0.00 0.06 0.06 53 1002.6
20181020201200 64 277 3.0 13.0 0.00 0.06 0.06 54 1002.6
20181020200700 64 158 3.0 13.0 0.00 0.06 0.06 55 1002.7
20181020200200 64 184 4.0 12.0 0.00 0.06 0.06 54 1002.6
20181020195702 64 213 7.0 12.0 0.00 0.06 0.06 54 1002.7
20181020195201 64 235 2.0 14.0 0.00 0.06 0.06 55 1002.9
20181020194701 64 250 5.0 14.0 0.00 0.06 0.06 54 1002.9
20181020194200 64 257 7.0 14.0 0.00 0.06 0.06 54 1003.0
20181020193701 64 232 4.0 9.0 0.00 0.06 0.06 56 1003.0
20181020193201 63 255 3.0 15.0 0.00 0.06 0.06 56 1003.1
20181020192701 63 281 5.0 15.0 0.00 0.06 0.06 56 1003.4
20181020192200 63 234 4.0 9.0 0.00 0.06 0.06 56 1003.4
20181020191700 64 200 3.0 9.0 0.00 0.06 0.06 56 1003.5
20181020191200 64 277 2.0 9.0 0.00 0.06 0.06 56 1003.5
20181020190700 64 172 3.0 12.0 0.00 0.06 0.06 56 1003.5
20181020190200 64 278 2.0 12.0 0.00 0.06 0.06 57 1003.8
20181020185701 64 182 5.0 12.0 0.00 0.06 0.06 57 1003.9
20181020185201 64 244 2.0 10.0 0.00 0.06 0.06 56 1003.9
20181020184700 65 248 4.0 10.0 0.00 0.06 0.06 56 1004.0
20181020184201 65 278 3.0 14.0 0.00 0.06 0.06 56 1004.0
20181020183701 65 218 5.0 14.0 0.00 0.06 0.06 57 1003.9
20181020183200 64 282 3.0 12.0 0.00 0.06 0.06 59 1004.0
20181020182701 63 241 3.0 12.0 0.00 0.06 0.06 61 1004.0
20181020182201 62 257 2.0 12.0 0.00 0.06 0.06 62 1004.1
20181020181700 62 250 6.0 12.0 0.00 0.06 0.06 62 1004.3
20181020181200 62 275 3.0 12.0 0.00 0.06 0.06 62 1004.4
20181020180701 63 236 2.0 12.0 0.00 0.06 0.06 61 1004.4
20181020180201 63 247 4.0 13.0 0.00 0.06 0.06 61 1004.4
20181020175701 63 227 5.0 13.0 0.00 0.06 0.06 61 1004.5
20181020175201 62 245 3.0 7.0 0.00 0.06 0.06 62 1004.6
20181020174701 62 249 3.0 9.0 0.00 0.06 0.06 64 1004.7
20181020174201 61 299 3.0 9.0 0.00 0.06 0.06 64 1004.9
20181020173701 61 226 3.0 10.0 0.00 0.06 0.06 64 1005.0
20181020173201 61 190 3.0 10.0 0.00 0.06 0.06 65 1005.1
20181020172700 61 271 2.0 12.0 0.00 0.06 0.06 65 1005.1
20181020172200 61 261 2.0 12.0 0.00 0.06 0.06 64 1005.1
20181020171701 61 317 6.0 13.0 0.00 0.06 0.06 63 1005.1
20181020171200 61 269 3.0 14.0 0.00 0.06 0.06 64 1005.3
20181020170701 61 284 4.0 16.0 0.00 0.06 0.06 65 1005.4
20181020170204 61 229 3.0 16.0 0.00 0.06 0.06 65 1005.5
20181020165700 61 285 3.0 12.0 0.00 0.06 0.06 65 1005.5
20181020165201 61 273 5.0 15.0 0.00 0.06 0.06 65 1005.6
20181020164700 62 279 4.0 15.0 0.00 0.06 0.06 65 1005.8
20181020164201 62 234 6.0 15.0 0.00 0.06 0.06 65 1005.8
20181020163701 62 282 5.0 12.0 0.00 0.06 0.06 67 1005.9